CST,Max TemperatureF,Mean TemperatureF,Min TemperatureF,Max Dew PointF,MeanDew PointF,Min DewpointF,Max Humidity, Mean Humidity, Min Humidity, Max Sea Level PressureIn, Mean Sea Level PressureIn, Min Sea Level PressureIn, Max VisibilityMiles, Mean VisibilityMiles, Min VisibilityMiles, Max Wind SpeedMPH, Mean Wind SpeedMPH, Max Gust SpeedMPH,PrecipitationIn, CloudCover, Events, WindDirDegrees
2012-11-1,72,60,47,50,42,32,94,59,29,30.07,30.00,29.96,10,10,10,12,4,17,0.00,1,,307
2012-11-2,80,61,42,61,52,41,97,72,45,30.08,30.03,29.98,10,9,5,12,3,18,0.00,0,Rain,233
2012-11-3,84,69,54,65,59,54,100,84,42,30.13,30.07,30.03,10,5,0,8,2,,0.00,1,Fog,244
2012-11-4,80,67,55,66,57,55,100,94,47,30.09,30.06,29.98,10,3,0,10,3,,0.00,0,Fog,247
2012-11-5,72,60,47,53,45,33,91,66,26,30.09,30.00,29.90,10,10,10,9,5,,0.05,3,Rain,2
2012-11-6,59,53,47,52,48,44,100,89,59,29.99,29.93,29.90,10,6,0,13,7,18,0.01,6,Fog-Thunderstorm,320
2012-11-7,63,53,43,47,41,35,97,68,36,30.10,30.00,29.91,10,10,10,15,7,22,0.00,3,Rain,309
2012-11-8,64,50,37,42,39,36,97,70,37,30.23,30.17,30.09,10,10,8,8,5,,0.00,0,,327
2012-11-9,70,52,35,42,38,33,92,65,27,30.32,30.25,30.21,10,10,10,6,0,,0.00,0,,10
2012-11-10,72,54,37,45,40,36,95,63,26,30.35,30.29,30.25,10,10,10,9,4,,0.00,0,,95
2012-11-11,76,60,43,55,49,39,89,68,43,30.35,30.28,30.24,10,10,10,14,6,22,0.00,2,,94
2012-11-12,75,64,53,65,58,52,96,88,60,30.26,30.22,30.17,10,9,4,16,9,22,0.00,7,Rain,310
2012-11-13,63,52,42,52,39,29,94,67,29,30.33,30.26,30.21,10,10,10,15,10,21,0.00,4,,343
2012-11-14,58,51,44,52,46,32,95,82,58,30.26,30.23,30.21,10,10,6,12,8,,0.01,8,Rain,36
2012-11-15,54,51,48,48,46,43,94,85,76,30.27,30.24,30.20,10,10,10,10,7,,0.00,8,,23
2012-11-16,63,54,42,47,45,39,100,84,47,30.29,30.26,30.20,10,9,5,15,6,,0.00,6,,44
2012-11-17,62,50,39,42,39,35,94,66,43,30.34,30.30,30.26,10,9,4,14,7,21,0.00,1,,32
2012-11-18,68,56,43,46,40,34,87,61,41,30.32,30.28,30.24,10,10,6,12,7,,0.00,1,,18
2012-11-19,68,56,43,52,47,42,93,73,43,30.28,30.22,30.15,10,10,7,10,5,,0.00,2,,359
2012-11-20,67,58,50,55,52,48,96,76,55,30.18,30.12,30.08,10,10,10,9,4,,0.00,5,Rain,331
2012-11-21,73,60,47,50,47,45,92,69,37,30.17,30.13,30.09,10,10,10,13,5,17,0.00,0,,325
2012-11-22,72,56,41,48,45,40,95,72,36,30.25,30.19,30.15,10,10,10,6,1,,0.00,0,,350
2012-11-23,73,56,40,54,45,38,100,78,35,30.25,30.17,30.09,10,7,1,10,2,,0.00,1,,279
2012-11-24,60,48,34,47,33,24,84,56,26,30.22,30.16,30.12,10,10,10,14,8,22,0.00,0,,324
2012-11-25,62,46,29,30,25,19,83,52,19,30.25,30.17,30.12,10,10,10,6,2,,0.00,0,,357
2012-11-26,68,50,31,48,40,28,87,68,39,30.26,30.19,30.15,10,10,10,8,4,,0.00,2,,127
2012-11-27,59,56,53,58,55,48,100,95,72,30.23,30.16,30.09,10,7,1,10,4,,1.02,8,Rain,29
2012-11-28,60,51,41,54,45,37,100,82,42,30.38,30.31,30.23,10,9,5,10,8,,0.00,5,,350
2012-11-29,60,47,34,49,43,34,97,83,63,30.42,30.35,30.30,10,8,2,9,4,,0.00,5,,35
2012-11-30,70,59,48,54,50,46,94,76,52,30.33,30.28,30.23,10,9,3,8,5,,0.00,6,,67